Time,TemperatureF,DewpointF,PressureIn,WindDirection,WindDirectionDegrees,WindSpeedMPH,WindSpeedGustMPH,Humidity,HourlyPrecipIn,Conditions,Clouds,dailyrainin,SoftwareType,DateUTC
2013-04-01 00:00:00,40.3,30.7,29.71,West,270,10.1,10.1,68,0.00,RMK 69.6/43.0,,0.02,WUHU21623XXSP,2013-04-01 04:00:00,
2013-04-01 00:05:00,40.1,30.8,29.71,WNW,292,0.0,10.1,69,0.00,RMK 69.4/43.0,,0.00,WUHU21623XXSP,2013-04-01 04:05:00,
2013-04-01 00:10:00,39.8,30.5,29.71,NW,315,0.0,0.0,69,0.00,RMK 69.4/43.0,,0.00,WUHU21623XXSP,2013-04-01 04:10:00,
2013-04-01 00:12:00,39.8,30.5,29.71,NW,315,0.0,0.0,69,0.00,RMK 69.4/43.0,,0.00,WUHU21623XXSP,2013-04-01 04:12:00,
2013-04-01 00:17:00,39.2,30.0,29.71,WNW,292,4.3,6.0,69,0.00,RMK 69.4/43.0,,0.00,WUHU21623XXSP,2013-04-01 04:17:00,
2013-04-01 00:22:00,38.9,29.7,29.71,West,270,0.0,6.0,69,0.00,RMK 69.6/43.0,,0.00,WUHU21623XXSP,2013-04-01 04:22:00,
2013-04-01 00:27:00,38.5,29.3,29.71,NW,315,3.4,3.4,69,0.00,RMK 69.6/42.0,,0.00,WUHU21623XXSP,2013-04-01 04:27:00,
2013-04-01 00:32:00,38.3,29.1,29.72,NW,315,2.5,3.4,69,0.00,RMK 69.8/42.0,,0.00,WUHU21623XXSP,2013-04-01 04:32:00,
2013-04-01 00:38:00,38.3,29.1,29.71,NNE,22,8.5,8.5,69,0.00,RMK 69.8/42.0,,0.00,WUHU21623XXSP,2013-04-01 04:38:00,
2013-04-01 00:42:00,38.0,28.8,29.71,West,270,0.0,8.5,69,0.00,RMK 70.0/42.0,,0.00,WUHU21623XXSP,2013-04-01 04:42:00,
2013-04-01 00:47:00,37.8,29.0,29.71,NNW,337,0.0,5.8,70,0.00,RMK 70.0/42.0,,0.00,WUHU21623XXSP,2013-04-01 04:47:00,
2013-04-01 00:52:00,37.6,28.8,29.72,NNW,337,4.0,4.0,70,0.00,RMK 70.0/42.0,,0.00,WUHU21623XXSP,2013-04-01 04:52:00,
2013-04-01 00:57:00,37.4,28.6,29.71,NW,315,0.0,4.0,70,0.00,RMK 70.0/42.0,,0.00,WUHU21623XXSP,2013-04-01 04:57:00,
2013-04-01 01:02:00,37.3,28.5,29.72,WNW,292,0.0,5.6,70,0.00,RMK 69.8/42.0,,0.00,WUHU21623XXSP,2013-04-01 05:02:00,
2013-04-01 01:07:00,37.1,28.6,29.72,North,0,0.0,5.6,71,0.00,RMK 69.8/42.0,,0.00,WUHU21623XXSP,2013-04-01 05:07:00,
2013-04-01 01:12:00,37.1,28.6,29.72,NNW,337,0.0,5.8,71,0.00,RMK 69.6/42.0,,0.00,WUHU21623XXSP,2013-04-01 05:12:00,
2013-04-01 01:17:00,36.7,28.2,29.72,NNW,337,0.0,5.8,71,0.00,RMK 69.6/42.0,,0.00,WUHU21623XXSP,2013-04-01 05:17:00,
2013-04-01 01:22:00,36.7,28.2,29.72,NW,315,0.0,5.1,71,0.00,RMK 69.4/42.0,,0.00,WUHU21623XXSP,2013-04-01 05:22:00,
2013-04-01 01:27:00,36.5,28.1,29.72,North,0,3.6,5.1,71,0.00,RMK 69.4/41.0,,0.00,WUHU21623XXSP,2013-04-01 05:27:00,
2013-04-01 01:32:00,36.5,28.1,29.73,NW,315,0.0,3.6,71,0.00,RMK 69.4/41.0,,0.00,WUHU21623XXSP,2013-04-01 05:32:00,
2013-04-01 01:37:00,36.5,28.4,29.73,NNW,337,0.0,0.9,72,0.00,RMK 69.3/41.0,,0.00,WUHU21623XXSP,2013-04-01 05:37:00,
2013-04-01 01:43:00,36.5,28.4,29.72,North,0,0.0,0.0,72,0.00,RMK 69.3/41.0,,0.00,WUHU21623XXSP,2013-04-01 05:43:00,
2013-04-01 01:48:00,36.2,28.1,29.74,NW,315,3.6,11.2,72,0.00,RMK 69.1/41.0,,0.00,WUHU21623XXSP,2013-04-01 05:48:00,
2013-04-01 01:53:00,35.3,26.9,29.74,NW,315,11.0,11.2,71,0.00,RMK 69.1/41.0,,0.00,WUHU21623XXSP,2013-04-01 05:53:00,
2013-04-01 01:58:00,33.8,26.1,29.75,North,0,6.0,11.0,73,0.00,RMK 69.1/41.0,,0.00,WUHU21623XXSP,2013-04-01 05:58:00,
2013-04-01 02:03:00,33.1,26.1,29.75,North,0,12.5,12.5,75,0.00,RMK 68.9/41.0,,0.00,WUHU21623XXSP,2013-04-01 06:03:00,
2013-04-01 02:08:00,32.6,25.9,29.75,North,0,5.4,12.5,76,0.00,RMK 68.9/41.0,,0.00,WUHU21623XXSP,2013-04-01 06:08:00,
2013-04-01 02:13:00,32.4,26.3,29.75,North,0,0.0,8.1,78,0.00,RMK 68.7/41.0,,0.00,WUHU21623XXSP,2013-04-01 06:13:00,
2013-04-01 02:18:00,32.4,26.3,29.75,North,0,5.1,5.1,78,0.00,RMK 68.7/41.0,,0.00,WUHU21623XXSP,2013-04-01 06:18:00,
2013-04-01 02:23:00,32.2,26.1,29.75,North,0,4.5,5.1,78,0.00,RMK 68.7/41.0,,0.00,WUHU21623XXSP,2013-04-01 06:23:00,
2013-04-01 02:28:00,32.2,26.1,29.75,NNE,22,10.7,10.7,78,0.00,RMK 68.7/41.0,,0.00,WUHU21623XXSP,2013-04-01 06:28:00,
2013-04-01 02:33:00,32.2,26.1,29.75,North,0,1.3,10.7,78,0.00,RMK 68.5/41.0,,0.00,WUHU21623XXSP,2013-04-01 06:33:00,
2013-04-01 02:38:00,32.2,26.1,29.76,NNW,337,5.6,10.5,78,0.00,RMK 68.5/41.0,,0.00,WUHU21623XXSP,2013-04-01 06:38:00,
2013-04-01 02:43:00,32.0,25.9,29.76,NNE,22,4.7,10.5,78,0.00,RMK 68.5/41.0,,0.00,WUHU21623XXSP,2013-04-01 06:43:00,
2013-04-01 02:48:00,32.0,25.9,29.77,NNW,337,7.4,7.4,78,0.00,RMK 68.4/41.0,,0.00,WUHU21623XXSP,2013-04-01 06:48:00,
2013-04-01 02:53:00,31.9,25.8,29.77,NNW,337,5.1,7.4,78,0.00,RMK 68.4/41.0,,0.00,WUHU21623XXSP,2013-04-01 06:53:00,
2013-04-01 02:58:00,31.9,25.8,29.77,NNW,337,0.0,5.1,78,0.00,RMK 68.4/41.0,,0.00,WUHU21623XXSP,2013-04-01 06:58:00,
2013-04-01 03:03:00,31.9,25.8,29.77,ENE,67,7.2,7.2,78,0.00,RMK 68.4/41.0,,0.00,WUHU21623XXSP,2013-04-01 07:03:00,
2013-04-01 03:08:00,31.9,25.8,29.77,NNE,22,5.4,7.2,78,0.00,RMK 68.2/41.0,,0.00,WUHU21623XXSP,2013-04-01 07:08:00,
2013-04-01 03:13:00,31.9,25.5,29.77,NNW,337,6.9,6.9,77,0.00,RMK 68.2/41.0,,0.00,WUHU21623XXSP,2013-04-01 07:13:00,
2013-04-01 03:18:00,31.9,25.5,29.78,NW,315,5.8,6.9,77,0.00,RMK 68.2/41.0,,0.00,WUHU21623XXSP,2013-04-01 07:18:00,
2013-04-01 03:23:00,32.0,25.3,29.79,North,0,11.6,11.6,76,0.00,RMK 68.0/41.0,,0.00,WUHU21623XXSP,2013-04-01 07:23:00,
2013-04-01 03:28:00,32.0,25.3,29.79,NNE,22,5.6,11.6,76,0.00,RMK 68.0/40.0,,0.00,WUHU21623XXSP,2013-04-01 07:28:00,
2013-04-01 03:33:00,31.9,25.2,29.79,North,0,7.8,7.8,76,0.00,RMK 68.0/40.0,,0.00,WUHU21623XXSP,2013-04-01 07:33:00,
2013-04-01 03:38:00,31.9,24.9,29.79,NW,315,7.2,7.8,75,0.00,RMK 68.0/40.0,,0.00,WUHU21623XXSP,2013-04-01 07:38:00,
2013-04-01 03:43:00,31.9,24.6,29.79,North,0,5.1,7.2,74,0.00,RMK 67.8/40.0,,0.00,WUHU21623XXSP,2013-04-01 07:43:00,
2013-04-01 03:48:00,31.9,24.6,29.80,North,0,0.0,5.1,74,0.00,RMK 67.8/40.0,,0.00,WUHU21623XXSP,2013-04-01 07:48:00,
2013-04-01 03:53:00,31.7,24.4,29.79,North,0,6.3,6.5,74,0.00,RMK 67.8/39.0,,0.00,WUHU21623XXSP,2013-04-01 07:53:00,
2013-04-01 03:58:00,31.7,24.4,29.79,NNE,22,4.5,8.9,74,0.00,RMK 67.8/39.0,,0.00,WUHU21623XXSP,2013-04-01 07:58:00,
2013-04-01 04:03:00,31.3,24.0,29.79,NNE,22,4.9,8.9,74,0.00,RMK 67.8/39.0,,0.00,WUHU21623XXSP,2013-04-01 08:03:00,
2013-04-01 04:08:00,31.1,23.8,29.80,NNW,337,15.9,15.9,74,0.00,RMK 67.8/39.0,,0.00,WUHU21623XXSP,2013-04-01 08:08:00,
2013-04-01 04:13:00,31.0,23.4,29.80,North,0,6.7,15.9,73,0.00,RMK 67.8/39.0,,0.00,WUHU21623XXSP,2013-04-01 08:13:00,
2013-04-01 04:18:00,30.8,23.2,29.80,NNW,337,6.3,6.7,73,0.00,RMK 67.6/39.0,,0.00,WUHU21623XXSP,2013-04-01 08:18:00,
2013-04-01 04:23:00,30.6,22.7,29.81,North,0,4.7,6.3,72,0.00,RMK 67.6/39.0,,0.00,WUHU21623XXSP,2013-04-01 08:23:00,
2013-04-01 04:28:00,30.4,22.2,29.81,North,0,8.5,10.5,71,0.00,RMK 67.6/39.0,,0.00,WUHU21623XXSP,2013-04-01 08:28:00,
2013-04-01 04:33:00,30.4,21.8,29.81,North,0,0.9,10.5,70,0.00,RMK 67.6/39.0,,0.00,WUHU21623XXSP,2013-04-01 08:33:00,
2013-04-01 04:38:00,30.1,20.9,29.82,NNW,337,4.7,9.6,68,0.00,RMK 67.6/39.0,,0.00,WUHU21623XXSP,2013-04-01 08:38:00,
2013-04-01 04:43:00,29.9,20.3,29.82,North,0,8.1,11.4,67,0.00,RMK 67.6/39.0,,0.00,WUHU21623XXSP,2013-04-01 08:43:00,
2013-04-01 04:48:00,29.9,20.0,29.82,NNW,337,7.2,11.4,66,0.00,RMK 67.5/39.0,,0.00,WUHU21623XXSP,2013-04-01 08:48:00,
2013-04-01 04:53:00,29.7,19.8,29.82,NNE,22,4.3,11.0,66,0.00,RMK 67.5/39.0,,0.00,WUHU21623XXSP,2013-04-01 08:53:00,
2013-04-01 04:58:00,29.5,19.6,29.82,NNW,337,0.0,12.1,66,0.00,RMK 67.5/39.0,,0.00,WUHU21623XXSP,2013-04-01 08:58:00,
2013-04-01 05:03:00,29.5,19.6,29.83,NNW,337,0.0,12.1,66,0.00,RMK 67.3/39.0,,0.00,WUHU21623XXSP,2013-04-01 09:03:00,
2013-04-01 05:08:00,29.5,19.2,29.83,NW,315,0.0,6.7,65,0.00,RMK 67.3/39.0,,0.00,WUHU21623XXSP,2013-04-01 09:08:00,
2013-04-01 05:13:00,29.3,19.1,29.83,North,0,2.7,11.4,65,0.00,RMK 67.3/39.0,,0.00,WUHU21623XXSP,2013-04-01 09:13:00,
2013-04-01 05:18:00,29.2,19.0,29.84,NNE,22,0.0,11.4,65,0.00,RMK 67.3/39.0,,0.00,WUHU21623XXSP,2013-04-01 09:18:00,
2013-04-01 05:23:00,29.0,18.8,29.84,North,0,5.8,5.8,65,0.00,RMK 67.3/39.0,,0.00,WUHU21623XXSP,2013-04-01 09:23:00,
2013-04-01 05:28:00,28.8,18.6,29.85,NNW,337,0.0,5.8,65,0.00,RMK 67.3/39.0,,0.00,WUHU21623XXSP,2013-04-01 09:28:00,
2013-04-01 05:33:00,28.8,18.6,29.85,North,0,0.0,5.8,65,0.00,RMK 67.1/39.0,,0.00,WUHU21623XXSP,2013-04-01 09:33:00,
2013-04-01 05:38:00,28.6,18.7,29.86,NW,315,6.9,6.9,66,0.00,RMK 67.1/38.0,,0.00,WUHU21623XXSP,2013-04-01 09:38:00,
2013-04-01 05:43:00,28.6,18.4,29.86,NNW,337,0.0,6.9,65,0.00,RMK 67.1/38.0,,0.00,WUHU21623XXSP,2013-04-01 09:43:00,
2013-04-01 05:48:00,28.6,18.4,29.86,NNW,337,0.0,6.7,65,0.00,RMK 67.1/38.0,,0.00,WUHU21623XXSP,2013-04-01 09:48:00,
2013-04-01 05:53:00,28.4,18.2,29.86,NNW,337,0.0,5.8,65,0.00,RMK 67.1/39.0,,0.00,WUHU21623XXSP,2013-04-01 09:53:00,
2013-04-01 05:58:00,28.3,18.1,29.86,NW,315,6.0,10.3,65,0.00,RMK 67.1/39.0,,0.00,WUHU21623XXSP,2013-04-01 09:58:00,
2013-04-01 06:03:00,28.1,17.9,29.87,NNE,22,5.8,10.3,65,0.00,RMK 67.1/39.0,,0.00,WUHU21623XXSP,2013-04-01 10:03:00,
2013-04-01 06:08:00,28.1,17.9,29.87,ENE,67,6.5,10.3,65,0.00,RMK 67.3/39.0,,0.00,WUHU21623XXSP,2013-04-01 10:08:00,
2013-04-01 06:13:00,28.1,17.5,29.87,NNW,337,0.0,6.5,64,0.00,RMK 67.3/39.0,,0.00,WUHU21623XXSP,2013-04-01 10:13:00,
2013-04-01 06:18:00,28.1,17.5,29.88,NNW,337,0.0,0.0,64,0.00,RMK 67.5/39.0,,0.00,WUHU21623XXSP,2013-04-01 10:18:00,
2013-04-01 06:23:00,28.1,17.5,29.88,NNW,337,6.0,6.0,64,0.00,RMK 67.5/39.0,,0.00,WUHU21623XXSP,2013-04-01 10:23:00,
2013-04-01 06:28:00,28.1,17.5,29.87,NNE,22,5.1,6.0,64,0.00,RMK 67.6/39.0,,0.00,WUHU21623XXSP,2013-04-01 10:28:00,
2013-04-01 06:33:00,28.1,17.5,29.88,NNW,337,0.0,5.1,64,0.00,RMK 67.6/39.0,,0.00,WUHU21623XXSP,2013-04-01 10:33:00,
2013-04-01 06:39:00,27.7,17.5,29.88,North,0,0.0,0.0,65,0.00,RMK 67.6/39.0,,0.00,WUHU21623XXSP,2013-04-01 10:39:00,
2013-04-01 06:44:00,27.7,17.5,29.88,North,0,0.0,0.0,65,0.00,RMK 67.6/38.0,,0.00,WUHU21623XXSP,2013-04-01 10:44:00,
2013-04-01 06:49:00,27.7,17.5,29.89,NNW,337,0.0,0.0,65,0.00,RMK 67.5/38.0,,0.00,WUHU21623XXSP,2013-04-01 10:49:00,
2013-04-01 06:54:00,27.7,17.5,29.89,NNW,337,0.0,0.0,65,0.00,RMK 67.5/38.0,,0.00,WUHU21623XXSP,2013-04-01 10:54:00,
2013-04-01 06:59:00,27.5,17.3,29.89,NNW,337,0.0,0.0,65,0.00,RMK 67.3/38.0,,0.00,WUHU21623XXSP,2013-04-01 10:59:00,
2013-04-01 07:04:00,27.4,17.2,29.89,NNE,22,0.0,3.4,65,0.00,RMK 67.3/38.0,,0.00,WUHU21623XXSP,2013-04-01 11:04:00,
2013-04-01 07:09:00,27.2,17.0,29.90,NW,315,5.4,5.4,65,0.00,RMK 67.3/38.0,,0.00,WUHU21623XXSP,2013-04-01 11:09:00,
2013-04-01 07:14:00,27.2,17.0,29.90,NW,315,7.4,7.4,65,0.00,RMK 67.3/38.0,,0.00,WUHU21623XXSP,2013-04-01 11:14:00,
2013-04-01 07:19:00,27.2,17.0,29.90,NNW,337,0.0,7.4,65,0.00,RMK 67.1/38.0,,0.00,WUHU21623XXSP,2013-04-01 11:19:00,
2013-04-01 07:24:00,27.2,17.0,29.90,NW,315,0.0,2.9,65,0.00,RMK 67.1/38.0,,0.00,WUHU21623XXSP,2013-04-01 11:24:00,
2013-04-01 07:29:00,27.2,17.0,29.90,North,0,5.1,5.1,65,0.00,RMK 67.1/38.0,,0.00,WUHU21623XXSP,2013-04-01 11:29:00,
2013-04-01 07:34:00,27.0,16.9,29.91,NNW,337,0.0,5.1,65,0.00,RMK 66.9/38.0,,0.00,WUHU21623XXSP,2013-04-01 11:34:00,
2013-04-01 07:39:00,27.0,16.9,29.91,NNW,337,0.0,0.0,65,0.00,RMK 66.9/38.0,,0.00,WUHU21623XXSP,2013-04-01 11:39:00,
2013-04-01 07:44:00,27.0,16.9,29.91,North,0,6.5,8.9,65,0.00,RMK 66.9/38.0,,0.00,WUHU21623XXSP,2013-04-01 11:44:00,
2013-04-01 07:49:00,27.0,16.9,29.91,North,0,3.8,8.9,65,0.00,RMK 66.9/38.0,,0.00,WUHU21623XXSP,2013-04-01 11:49:00,
2013-04-01 07:54:00,27.2,17.0,29.91,NNW,337,0.0,8.5,65,0.00,RMK 66.9/38.0,,0.00,WUHU21623XXSP,2013-04-01 11:54:00,
2013-04-01 07:59:00,27.2,17.0,29.92,North,0,0.0,7.8,65,0.00,RMK 66.9/38.0,,0.00,WUHU21623XXSP,2013-04-01 11:59:00,
2013-04-01 08:04:00,27.2,17.0,29.92,North,0,0.0,5.1,65,0.00,RMK 66.9/38.0,,0.00,WUHU21623XXSP,2013-04-01 12:04:00,
2013-04-01 08:09:00,27.2,17.0,29.92,North,0,0.0,3.1,65,0.00,RMK 66.9/38.0,,0.00,WUHU21623XXSP,2013-04-01 12:09:00,
2013-04-01 08:14:00,27.5,17.3,29.92,North,0,4.7,4.7,65,0.00,RMK 66.9/38.0,,0.00,WUHU21623XXSP,2013-04-01 12:14:00,
2013-04-01 08:19:00,27.5,17.3,29.93,North,0,0.0,4.7,65,0.00,RMK 66.9/38.0,,0.00,WUHU21623XXSP,2013-04-01 12:19:00,
2013-04-01 08:24:00,27.7,17.5,29.93,North,0,0.7,3.6,65,0.00,RMK 67.1/39.0,,0.00,WUHU21623XXSP,2013-04-01 12:24:00,
2013-04-01 08:29:00,27.7,17.5,29.93,NNW,337,0.0,5.6,65,0.00,RMK 67.3/39.0,,0.00,WUHU21623XXSP,2013-04-01 12:29:00,
2013-04-01 08:34:00,27.7,17.5,29.93,North,0,2.5,5.6,65,0.00,RMK 67.3/39.0,,0.00,WUHU21623XXSP,2013-04-01 12:34:00,
2013-04-01 08:39:00,28.1,17.9,29.93,North,0,0.0,5.1,65,0.00,RMK 67.5/39.0,,0.00,WUHU21623XXSP,2013-04-01 12:39:00,
2013-04-01 08:44:00,27.7,17.5,29.93,NW,315,2.5,11.6,65,0.00,RMK 67.6/39.0,,0.00,WUHU21623XXSP,2013-04-01 12:44:00,
2013-04-01 08:49:00,27.9,17.7,29.94,NNW,337,0.0,11.6,65,0.00,RMK 67.6/39.0,,0.00,WUHU21623XXSP,2013-04-01 12:49:00,
2013-04-01 08:54:00,28.1,17.9,29.94,WNW,292,7.4,11.2,65,0.00,RMK 67.8/39.0,,0.00,WUHU21623XXSP,2013-04-01 12:54:00,
2013-04-01 08:59:00,28.1,17.9,29.94,NNW,337,10.5,10.5,65,0.00,RMK 68.0/39.0,,0.00,WUHU21623XXSP,2013-04-01 12:59:00,
2013-04-01 09:04:00,28.6,18.4,29.95,NNE,22,5.6,10.5,65,0.00,RMK 68.0/39.0,,0.00,WUHU21623XXSP,2013-04-01 13:04:00,
2013-04-01 09:09:00,28.6,18.7,29.95,North,0,4.0,5.6,66,0.00,RMK 68.2/39.0,,0.00,WUHU21623XXSP,2013-04-01 13:09:00,
2013-04-01 09:14:00,28.4,18.9,29.95,NNE,22,10.1,11.4,67,0.00,RMK 68.2/39.0,,0.00,WUHU21623XXSP,2013-04-01 13:14:00,
2013-04-01 09:19:00,29.5,19.6,29.95,North,0,0.0,11.4,66,0.00,RMK 68.4/39.0,,0.00,WUHU21623XXSP,2013-04-01 13:19:00,
2013-04-01 09:24:00,30.2,20.3,29.95,NNW,337,0.0,6.0,66,0.00,RMK 68.5/39.0,,0.00,WUHU21623XXSP,2013-04-01 13:24:00,
2013-04-01 09:29:00,30.8,20.1,29.95,North,0,0.0,5.6,64,0.00,RMK 68.7/39.0,,0.00,WUHU21623XXSP,2013-04-01 13:29:00,
2013-04-01 09:34:00,31.3,19.8,29.95,NW,315,0.0,6.3,62,0.00,RMK 69.1/38.0,,0.00,WUHU21623XXSP,2013-04-01 13:34:00,
2013-04-01 09:39:00,31.7,20.2,29.95,WSW,247,0.0,6.3,62,0.00,RMK 69.3/38.0,,0.00,WUHU21623XXSP,2013-04-01 13:39:00,
2013-04-01 09:44:00,32.0,20.1,29.95,North,0,5.6,6.7,61,0.00,RMK 69.3/38.0,,0.00,WUHU21623XXSP,2013-04-01 13:44:00,
2013-04-01 09:49:00,32.0,19.7,29.95,WNW,292,7.4,22.4,60,0.00,RMK 69.4/38.0,,0.00,WUHU21623XXSP,2013-04-01 13:49:00,
2013-04-01 09:54:00,32.6,19.9,29.95,North,0,8.9,22.4,59,0.00,RMK 69.6/38.0,,0.00,WUHU21623XXSP,2013-04-01 13:54:00,
2013-04-01 09:59:00,32.4,19.3,29.95,SW,225,6.0,8.9,58,0.00,RMK 69.8/38.0,,0.00,WUHU21623XXSP,2013-04-01 13:59:00,
2013-04-01 10:04:00,30.8,17.8,29.96,North,0,6.3,6.3,58,0.00,RMK 70.0/38.0,,0.00,WUHU21623XXSP,2013-04-01 14:04:00,
2013-04-01 10:09:00,30.6,18.0,29.96,NNW,337,0.0,6.3,59,0.00,RMK 70.0/38.0,,0.00,WUHU21623XXSP,2013-04-01 14:09:00,
2013-04-01 10:14:00,31.0,18.4,29.96,WNW,292,10.1,10.1,59,0.00,RMK 70.0/38.0,,0.00,WUHU21623XXSP,2013-04-01 14:14:00,
2013-04-01 10:19:00,30.8,18.2,29.96,North,0,4.3,10.1,59,0.00,RMK 70.0/38.0,,0.00,WUHU21623XXSP,2013-04-01 14:19:00,
2013-04-01 10:24:00,30.4,17.8,29.97,NNW,337,8.9,8.9,59,0.00,RMK 70.0/38.0,,0.00,WUHU21623XXSP,2013-04-01 14:24:00,
2013-04-01 10:29:00,30.6,17.6,29.97,North,0,6.3,13.4,58,0.00,RMK 70.0/38.0,,0.00,WUHU21623XXSP,2013-04-01 14:29:00,
2013-04-01 10:34:00,31.1,17.7,29.97,NNW,337,4.7,13.4,57,0.00,RMK 69.8/37.0,,0.00,WUHU21623XXSP,2013-04-01 14:34:00,
2013-04-01 10:39:00,30.8,17.4,29.97,NNW,337,8.1,9.8,57,0.00,RMK 69.8/37.0,,0.00,WUHU21623XXSP,2013-04-01 14:39:00,
2013-04-01 10:44:00,31.3,17.8,29.97,West,270,2.0,8.1,57,0.00,RMK 69.8/37.0,,0.00,WUHU21623XXSP,2013-04-01 14:44:00,
2013-04-01 10:49:00,32.0,18.1,29.97,NNW,337,0.0,8.5,56,0.00,RMK 69.8/37.0,,0.00,WUHU21623XXSP,2013-04-01 14:49:00,
2013-04-01 10:54:00,32.4,18.5,29.97,NNW,337,0.0,8.5,56,0.00,RMK 69.8/36.0,,0.00,WUHU21623XXSP,2013-04-01 14:54:00,
2013-04-01 10:59:00,33.1,18.7,29.97,WNW,292,6.7,6.7,55,0.00,RMK 69.8/36.0,,0.00,WUHU21623XXSP,2013-04-01 14:59:00,
2013-04-01 11:04:00,33.1,18.2,29.98,NW,315,2.9,6.7,54,0.00,RMK 69.6/36.0,,0.00,WUHU21623XXSP,2013-04-01 15:04:00,
2013-04-01 11:09:00,32.9,18.1,29.97,NW,315,15.4,15.4,54,0.00,RMK 69.6/36.0,,0.00,WUHU21623XXSP,2013-04-01 15:09:00,
2013-04-01 11:14:00,32.9,17.6,29.97,NNW,337,0.0,15.4,53,0.00,RMK 69.6/36.0,,0.00,WUHU21623XXSP,2013-04-01 15:14:00,
2013-04-01 11:19:00,33.5,18.2,29.98,NE,45,4.0,15.4,53,0.00,RMK 69.6/37.0,,0.00,WUHU21623XXSP,2013-04-01 15:19:00,
2013-04-01 11:24:00,33.1,17.3,29.98,NW,315,13.2,13.2,52,0.00,RMK 69.6/37.0,,0.00,WUHU21623XXSP,2013-04-01 15:24:00,
2013-04-01 11:29:00,32.9,17.2,29.98,NW,315,0.9,13.2,52,0.00,RMK 69.6/37.0,,0.00,WUHU21623XXSP,2013-04-01 15:29:00,
2013-04-01 11:34:00,32.0,16.8,29.99,WSW,247,0.0,9.2,53,0.00,RMK 69.6/37.0,,0.00,WUHU21623XXSP,2013-04-01 15:34:00,
2013-04-01 11:39:00,32.4,17.6,29.98,NNW,337,3.1,9.8,54,0.00,RMK 69.6/37.0,,0.00,WUHU21623XXSP,2013-04-01 15:39:00,
2013-04-01 11:44:00,33.5,18.6,29.98,NW,315,7.2,9.8,54,0.00,RMK 69.6/37.0,,0.00,WUHU21623XXSP,2013-04-01 15:44:00,
2013-04-01 11:49:00,33.5,17.7,29.99,NNE,22,4.9,13.0,52,0.00,RMK 69.6/37.0,,0.00,WUHU21623XXSP,2013-04-01 15:49:00,
2013-04-01 11:54:00,33.8,18.0,29.98,WNW,292,9.6,9.6,52,0.00,RMK 69.6/37.0,,0.00,WUHU21623XXSP,2013-04-01 15:54:00,
2013-04-01 11:59:00,33.3,17.5,29.99,North,0,3.4,9.6,52,0.00,RMK 69.8/38.0,,0.00,WUHU21623XXSP,2013-04-01 15:59:00,
2013-04-01 12:04:00,33.8,17.5,29.99,West,270,0.0,4.9,51,0.00,RMK 69.6/37.0,,0.00,WUHU21623XXSP,2013-04-01 16:04:00,
2013-04-01 12:09:00,33.8,17.5,29.99,NW,315,0.0,3.6,51,0.00,RMK 69.6/37.0,,0.00,WUHU21623XXSP,2013-04-01 16:09:00,
2013-04-01 12:14:00,34.2,17.4,30.00,NNW,337,15.4,15.4,50,0.00,RMK 69.6/37.0,,0.00,WUHU21623XXSP,2013-04-01 16:14:00,
2013-04-01 12:19:00,33.8,17.1,29.99,West,270,5.1,15.4,50,0.00,RMK 69.6/37.0,,0.00,WUHU21623XXSP,2013-04-01 16:19:00,
2013-04-01 12:24:00,33.8,17.1,29.99,West,270,0.0,5.1,50,0.00,RMK 69.6/37.0,,0.00,WUHU21623XXSP,2013-04-01 16:24:00,
2013-04-01 12:29:00,33.8,16.6,30.00,WNW,292,0.0,0.0,49,0.00,RMK 69.6/37.0,,0.00,WUHU21623XXSP,2013-04-01 16:29:00,
2013-04-01 12:34:00,34.0,16.8,30.00,NNW,337,7.8,11.9,49,0.00,RMK 69.6/37.0,,0.00,WUHU21623XXSP,2013-04-01 16:34:00,
2013-04-01 12:39:00,34.7,16.9,30.00,WNW,292,4.5,11.9,48,0.00,RMK 69.6/37.0,,0.00,WUHU21623XXSP,2013-04-01 16:39:00,
2013-04-01 12:44:00,34.0,16.3,30.00,WNW,292,12.5,12.5,48,0.00,RMK 69.6/37.0,,0.00,WUHU21623XXSP,2013-04-01 16:44:00,
2013-04-01 12:49:00,34.2,16.9,29.99,North,0,4.3,12.5,49,0.00,RMK 69.6/37.0,,0.00,WUHU21623XXSP,2013-04-01 16:49:00,
2013-04-01 12:54:00,34.9,17.6,30.00,SW,225,8.1,8.1,49,0.00,RMK 69.6/37.0,,0.00,WUHU21623XXSP,2013-04-01 16:54:00,
2013-04-01 12:59:00,34.9,17.1,30.00,NNE,22,5.8,9.8,48,0.00,RMK 69.6/37.0,,0.00,WUHU21623XXSP,2013-04-01 16:59:00,
2013-04-01 13:04:00,34.9,17.1,29.99,NW,315,7.4,9.8,48,0.00,RMK 69.6/38.0,,0.00,WUHU21623XXSP,2013-04-01 17:04:00,
2013-04-01 13:09:00,34.9,17.1,29.99,NW,315,5.8,7.4,48,0.00,RMK 69.6/38.0,,0.00,WUHU21623XXSP,2013-04-01 17:09:00,
2013-04-01 13:14:00,34.9,17.1,30.00,NW,315,0.4,5.8,48,0.00,RMK 69.8/39.0,,0.00,WUHU21623XXSP,2013-04-01 17:14:00,
2013-04-01 13:19:00,34.9,17.1,30.00,NW,315,2.7,5.4,48,0.00,RMK 70.2/39.0,,0.00,WUHU21623XXSP,2013-04-01 17:19:00,
2013-04-01 13:24:00,34.9,16.6,30.00,NW,315,5.1,7.2,47,0.00,RMK 70.3/39.0,,0.00,WUHU21623XXSP,2013-04-01 17:24:00,
2013-04-01 13:29:00,35.8,17.9,29.99,North,0,0.0,7.2,48,0.00,RMK 70.7/39.0,,0.00,WUHU21623XXSP,2013-04-01 17:29:00,
2013-04-01 13:34:00,36.2,18.3,30.00,NNW,337,9.6,9.6,48,0.00,RMK 70.9/39.0,,0.00,WUHU21623XXSP,2013-04-01 17:34:00,
2013-04-01 13:39:00,36.2,18.3,30.00,West,270,6.3,13.0,48,0.00,RMK 71.2/39.0,,0.00,WUHU21623XXSP,2013-04-01 17:39:00,
2013-04-01 13:44:00,37.1,18.6,29.99,North,0,0.0,13.0,47,0.00,RMK 71.4/39.0,,0.00,WUHU21623XXSP,2013-04-01 17:44:00,
2013-04-01 13:49:00,36.7,18.3,29.99,WNW,292,0.0,6.0,47,0.00,RMK 71.6/39.0,,0.00,WUHU21623XXSP,2013-04-01 17:49:00,
2013-04-01 13:54:00,35.6,16.7,29.99,NW,315,0.0,6.0,46,0.00,RMK 71.8/39.0,,0.00,WUHU21623XXSP,2013-04-01 17:54:00,
2013-04-01 13:59:00,35.5,16.6,29.99,WSW,247,0.0,13.2,46,0.00,RMK 72.0/38.0,,0.00,WUHU21623XXSP,2013-04-01 17:59:00,
2013-04-01 14:04:00,35.6,16.7,29.99,WSW,247,0.0,13.2,46,0.00,RMK 72.0/38.0,,0.00,WUHU21623XXSP,2013-04-01 18:04:00,
2013-04-01 14:09:00,35.8,16.4,29.99,WNW,292,0.0,4.0,45,0.00,RMK 72.0/38.0,,0.00,WUHU21623XXSP,2013-04-01 18:09:00,
2013-04-01 14:14:00,36.2,16.8,29.99,WNW,292,7.2,7.2,45,0.00,RMK 72.1/38.0,,0.00,WUHU21623XXSP,2013-04-01 18:14:00,
2013-04-01 14:19:00,35.8,16.4,29.99,West,270,0.0,7.2,45,0.00,RMK 72.1/38.0,,0.00,WUHU21623XXSP,2013-04-01 18:19:00,
2013-04-01 14:24:00,35.6,16.2,29.99,WNW,292,0.0,0.0,45,0.00,RMK 72.1/38.0,,0.00,WUHU21623XXSP,2013-04-01 18:24:00,
2013-04-01 14:29:00,35.8,16.9,29.99,NNW,337,2.9,2.9,46,0.00,RMK 72.0/38.0,,0.00,WUHU21623XXSP,2013-04-01 18:29:00,
2013-04-01 14:34:00,35.6,16.7,29.99,North,0,0.0,2.9,46,0.00,RMK 72.0/38.0,,0.00,WUHU21623XXSP,2013-04-01 18:34:00,
2013-04-01 14:39:00,35.3,15.9,29.99,North,0,0.0,7.8,45,0.00,RMK 72.0/38.0,,0.00,WUHU21623XXSP,2013-04-01 18:39:00,
2013-04-01 14:44:00,35.3,16.5,29.99,WNW,292,9.4,9.4,46,0.00,RMK 71.8/38.0,,0.00,WUHU21623XXSP,2013-04-01 18:44:00,
2013-04-01 14:49:00,35.1,16.3,29.99,NW,315,11.0,11.0,46,0.00,RMK 71.8/38.0,,0.00,WUHU21623XXSP,2013-04-01 18:49:00,
2013-04-01 14:54:00,34.9,15.6,29.99,NNW,337,5.4,11.0,45,0.00,RMK 71.6/38.0,,0.00,WUHU21623XXSP,2013-04-01 18:54:00,
2013-04-01 14:59:00,35.3,15.9,29.99,North,0,7.2,11.0,45,0.00,RMK 71.4/38.0,,0.00,WUHU21623XXSP,2013-04-01 18:59:00,
2013-04-01 15:04:00,35.5,16.1,29.99,NNW,337,0.0,7.2,45,0.00,RMK 71.4/38.0,,0.00,WUHU21623XXSP,2013-04-01 19:04:00,
2013-04-01 15:09:00,35.5,16.1,30.00,NW,315,10.7,10.7,45,0.00,RMK 71.2/38.0,,0.00,WUHU21623XXSP,2013-04-01 19:09:00,
2013-04-01 15:14:00,35.5,16.1,30.00,NW,315,8.7,10.7,45,0.00,RMK 71.1/38.0,,0.00,WUHU21623XXSP,2013-04-01 19:14:00,
2013-04-01 15:19:00,34.9,15.0,30.00,NNE,22,4.3,10.7,44,0.00,RMK 70.9/38.0,,0.00,WUHU21623XXSP,2013-04-01 19:19:00,
2013-04-01 15:24:00,34.9,15.6,30.00,NNW,337,16.1,16.1,45,0.00,RMK 70.7/38.0,,0.00,WUHU21623XXSP,2013-04-01 19:24:00,
2013-04-01 15:29:00,34.7,14.9,30.00,NW,315,8.5,16.1,44,0.00,RMK 70.5/38.0,,0.00,WUHU21623XXSP,2013-04-01 19:29:00,
2013-04-01 15:34:00,34.9,15.0,30.00,NW,315,10.3,10.3,44,0.00,RMK 70.3/38.0,,0.00,WUHU21623XXSP,2013-04-01 19:34:00,
2013-04-01 15:39:00,35.3,15.4,30.00,NNW,337,1.1,10.3,44,0.00,RMK 70.2/38.0,,0.00,WUHU21623XXSP,2013-04-01 19:39:00,
2013-04-01 15:44:00,34.9,15.0,30.00,North,0,11.2,11.2,44,0.00,RMK 70.2/38.0,,0.00,WUHU21623XXSP,2013-04-01 19:44:00,
2013-04-01 15:49:00,35.3,15.4,30.00,NNW,337,0.0,12.8,44,0.00,RMK 70.0/38.0,,0.00,WUHU21623XXSP,2013-04-01 19:49:00,
2013-04-01 15:54:00,34.9,15.0,30.00,North,0,0.0,12.8,44,0.00,RMK 69.8/38.0,,0.00,WUHU21623XXSP,2013-04-01 19:54:00,
2013-04-01 15:59:00,35.3,15.9,30.00,North,0,0.0,9.6,45,0.00,RMK 69.6/37.0,,0.00,WUHU21623XXSP,2013-04-01 19:59:00,
2013-04-01 16:04:00,35.5,16.1,30.00,NNE,22,0.0,0.0,45,0.00,RMK 69.4/38.0,,0.00,WUHU21623XXSP,2013-04-01 20:04:00,
2013-04-01 16:09:00,35.6,16.2,30.00,SE,135,0.0,0.0,45,0.00,RMK 69.4/38.0,,0.00,WUHU21623XXSP,2013-04-01 20:09:00,
2013-04-01 16:14:00,34.9,15.0,30.00,NW,315,6.5,7.2,44,0.00,RMK 69.3/38.0,,0.00,WUHU21623XXSP,2013-04-01 20:14:00,
2013-04-01 16:19:00,34.9,15.6,30.00,North,0,0.0,7.2,45,0.00,RMK 69.3/38.0,,0.00,WUHU21623XXSP,2013-04-01 20:19:00,
2013-04-01 16:24:00,34.7,15.4,30.00,NW,315,7.6,7.6,45,0.00,RMK 69.3/38.0,,0.00,WUHU21623XXSP,2013-04-01 20:24:00,
2013-04-01 16:29:00,34.7,15.4,30.01,North,0,14.5,14.5,45,0.00,RMK 69.3/38.0,,0.00,WUHU21623XXSP,2013-04-01 20:29:00,
2013-04-01 16:34:00,34.4,15.1,30.01,WNW,292,0.0,14.5,45,0.00,RMK 69.4/39.0,,0.00,WUHU21623XXSP,2013-04-01 20:34:00,
2013-04-01 16:39:00,34.4,15.1,30.01,West,270,0.0,0.7,45,0.00,RMK 69.4/39.0,,0.00,WUHU21623XXSP,2013-04-01 20:39:00,
2013-04-01 16:44:00,34.4,15.1,30.01,NW,315,4.3,4.3,45,0.00,RMK 69.6/39.0,,0.00,WUHU21623XXSP,2013-04-01 20:44:00,
2013-04-01 16:49:00,34.7,15.4,30.00,WNW,292,0.0,4.3,45,0.00,RMK 69.8/39.0,,0.00,WUHU21623XXSP,2013-04-01 20:49:00,
2013-04-01 16:54:00,34.7,15.9,30.00,WNW,292,6.0,6.0,46,0.00,RMK 69.8/39.0,,0.00,WUHU21623XXSP,2013-04-01 20:54:00,
2013-04-01 16:59:00,34.4,15.6,30.01,NW,315,0.0,6.0,46,0.00,RMK 70.0/39.0,,0.00,WUHU21623XXSP,2013-04-01 20:59:00,
2013-04-01 17:04:00,34.4,15.6,30.01,WNW,292,0.0,6.9,46,0.00,RMK 70.2/39.0,,0.00,WUHU21623XXSP,2013-04-01 21:04:00,
2013-04-01 17:09:00,34.4,15.6,30.01,NW,315,6.5,6.9,46,0.00,RMK 70.2/39.0,,0.00,WUHU21623XXSP,2013-04-01 21:09:00,
2013-04-01 17:14:00,34.2,15.4,30.01,WNW,292,3.4,6.5,46,0.00,RMK 70.2/39.0,,0.00,WUHU21623XXSP,2013-04-01 21:14:00,
2013-04-01 17:19:00,34.2,16.0,30.01,NW,315,0.9,3.6,47,0.00,RMK 70.2/39.0,,0.00,WUHU21623XXSP,2013-04-01 21:19:00,
2013-04-01 17:24:00,33.8,15.6,30.01,North,0,0.0,7.2,47,0.00,RMK 70.3/39.0,,0.00,WUHU21623XXSP,2013-04-01 21:24:00,
2013-04-01 17:29:00,33.8,15.6,30.01,WNW,292,2.0,7.2,47,0.00,RMK 70.3/39.0,,0.00,WUHU21623XXSP,2013-04-01 21:29:00,
2013-04-01 17:34:00,33.8,15.6,30.01,WNW,292,8.9,8.9,47,0.00,RMK 70.3/39.0,,0.00,WUHU21623XXSP,2013-04-01 21:34:00,
2013-04-01 17:39:00,33.8,15.6,30.02,NW,315,5.6,8.9,47,0.00,RMK 70.5/39.0,,0.00,WUHU21623XXSP,2013-04-01 21:39:00,
2013-04-01 17:44:00,33.7,15.5,30.02,North,0,4.7,10.7,47,0.00,RMK 70.5/39.0,,0.00,WUHU21623XXSP,2013-04-01 21:44:00,
2013-04-01 17:49:00,33.5,15.3,30.02,NNE,22,2.9,10.7,47,0.00,RMK 70.5/39.0,,0.00,WUHU21623XXSP,2013-04-01 21:49:00,
2013-04-01 17:54:00,33.1,15.4,30.02,NNW,337,0.0,2.9,48,0.00,RMK 70.5/39.0,,0.00,WUHU21623XXSP,2013-04-01 21:54:00,
2013-04-01 17:59:00,33.1,15.4,30.02,West,270,2.9,5.6,48,0.00,RMK 70.7/39.0,,0.00,WUHU21623XXSP,2013-04-01 21:59:00,
2013-04-01 18:04:00,32.9,15.3,30.02,NW,315,5.6,11.4,48,0.00,RMK 70.7/39.0,,0.00,WUHU21623XXSP,2013-04-01 22:04:00,
2013-04-01 18:09:00,32.4,15.3,30.03,North,0,5.1,11.4,49,0.00,RMK 70.7/39.0,,0.00,WUHU21623XXSP,2013-04-01 22:09:00,
2013-04-01 18:14:00,32.2,15.6,30.03,North,0,0.9,7.4,50,0.00,RMK 70.7/39.0,,0.00,WUHU21623XXSP,2013-04-01 22:14:00,
2013-04-01 18:19:00,32.2,15.6,30.03,NNW,337,0.0,5.6,50,0.00,RMK 70.7/39.0,,0.00,WUHU21623XXSP,2013-04-01 22:19:00,
2013-04-01 18:24:00,31.9,15.8,30.03,NNW,337,6.3,6.9,51,0.00,RMK 70.7/39.0,,0.00,WUHU21623XXSP,2013-04-01 22:24:00,
2013-04-01 18:29:00,31.9,15.8,30.03,North,0,6.3,6.9,51,0.00,RMK 70.7/39.0,,0.00,WUHU21623XXSP,2013-04-01 22:29:00,
2013-04-01 18:34:00,32.0,16.3,30.03,North,0,4.7,6.3,52,0.00,RMK 70.7/39.0,,0.00,WUHU21623XXSP,2013-04-01 22:34:00,
2013-04-01 18:39:00,32.0,16.3,30.03,NNW,337,0.0,6.0,52,0.00,RMK 70.7/39.0,,0.00,WUHU21623XXSP,2013-04-01 22:39:00,
2013-04-01 18:44:00,31.9,15.8,30.03,NW,315,5.6,5.6,51,0.00,RMK 70.7/39.0,,0.00,WUHU21623XXSP,2013-04-01 22:44:00,
2013-04-01 18:49:00,31.7,15.6,30.03,NNW,337,5.1,6.3,51,0.00,RMK 70.7/39.0,,0.00,WUHU21623XXSP,2013-04-01 22:49:00,
2013-04-01 18:54:00,31.3,15.2,30.03,WNW,292,0.0,6.3,51,0.00,RMK 70.7/39.0,,0.00,WUHU21623XXSP,2013-04-01 22:54:00,
2013-04-01 18:59:00,31.1,15.0,30.04,WNW,292,0.0,3.4,51,0.00,RMK 70.5/39.0,,0.00,WUHU21623XXSP,2013-04-01 22:59:00,
2013-04-01 19:04:00,31.1,15.5,30.04,NNW,337,6.5,6.5,52,0.00,RMK 70.3/39.0,,0.00,WUHU21623XXSP,2013-04-01 23:04:00,
2013-04-01 19:09:00,31.1,15.5,30.04,NNW,337,7.4,7.4,52,0.00,RMK 70.2/39.0,,0.00,WUHU21623XXSP,2013-04-01 23:09:00,
2013-04-01 19:14:00,30.8,15.2,30.04,WNW,292,4.9,7.4,52,0.00,RMK 70.0/39.0,,0.00,WUHU21623XXSP,2013-04-01 23:14:00,
2013-04-01 19:19:00,30.6,15.0,30.04,NNW,337,8.3,8.3,52,0.00,RMK 69.8/39.0,,0.00,WUHU21623XXSP,2013-04-01 23:19:00,
2013-04-01 19:24:00,30.4,15.7,30.05,West,270,0.0,8.3,54,0.00,RMK 69.6/39.0,,0.00,WUHU21623XXSP,2013-04-01 23:24:00,
2013-04-01 19:29:00,30.4,15.7,30.05,NNW,337,0.0,5.8,54,0.00,RMK 69.4/39.0,,0.00,WUHU21623XXSP,2013-04-01 23:29:00,
2013-04-01 19:34:00,30.2,16.0,30.05,NNW,337,0.0,6.3,55,0.00,RMK 69.3/39.0,,0.00,WUHU21623XXSP,2013-04-01 23:34:00,
2013-04-01 19:39:00,30.1,15.4,30.05,NW,315,0.0,6.3,54,0.00,RMK 69.3/39.0,,0.00,WUHU21623XXSP,2013-04-01 23:39:00,
2013-04-01 19:44:00,29.9,15.3,30.05,North,0,10.1,10.1,54,0.00,RMK 69.1/39.0,,0.00,WUHU21623XXSP,2013-04-01 23:44:00,
2013-04-01 19:49:00,29.9,15.7,30.06,WNW,292,0.0,10.1,55,0.00,RMK 68.9/39.0,,0.00,WUHU21623XXSP,2013-04-01 23:49:00,
2013-04-01 19:54:00,29.7,15.9,30.05,WNW,292,6.0,6.0,56,0.00,RMK 68.9/39.0,,0.00,WUHU21623XXSP,2013-04-01 23:54:00,
2013-04-01 19:59:00,29.5,15.7,30.06,North,0,9.2,9.2,56,0.00,RMK 68.7/39.0,,0.00,WUHU21623XXSP,2013-04-01 23:59:00,
2013-04-01 20:04:00,29.5,15.7,30.06,NW,315,3.6,9.2,56,0.00,RMK 68.7/39.0,,0.00,WUHU21623XXSP,2013-04-02 00:04:00,
2013-04-01 20:09:00,29.3,16.0,30.06,NW,315,0.0,9.2,57,0.00,RMK 68.7/39.0,,0.00,WUHU21623XXSP,2013-04-02 00:09:00,
2013-04-01 20:14:00,29.3,16.0,30.06,NNW,337,0.0,5.8,57,0.00,RMK 68.5/39.0,,0.00,WUHU21623XXSP,2013-04-02 00:14:00,
2013-04-01 20:19:00,29.3,16.0,30.07,West,270,0.0,5.8,57,0.00,RMK 68.5/40.0,,0.00,WUHU21623XXSP,2013-04-02 00:19:00,
2013-04-01 20:24:00,29.2,15.5,30.06,NNW,337,4.7,4.7,56,0.00,RMK 68.4/40.0,,0.00,WUHU21623XXSP,2013-04-02 00:24:00,
2013-04-01 20:29:00,29.0,15.3,30.06,NNW,337,0.0,4.7,56,0.00,RMK 68.4/40.0,,0.00,WUHU21623XXSP,2013-04-02 00:29:00,
2013-04-01 20:34:00,29.0,14.8,30.06,NW,315,0.0,4.7,55,0.00,RMK 68.4/40.0,,0.00,WUHU21623XXSP,2013-04-02 00:34:00,
2013-04-01 20:39:00,29.0,14.4,30.07,NNW,337,0.0,0.9,54,0.00,RMK 68.4/40.0,,0.00,WUHU21623XXSP,2013-04-02 00:39:00,
2013-04-01 20:44:00,29.0,14.4,30.07,NNW,337,5.4,10.7,54,0.00,RMK 68.5/40.0,,0.00,WUHU21623XXSP,2013-04-02 00:44:00,
2013-04-01 20:49:00,28.8,13.8,30.07,NNW,337,0.0,11.0,53,0.00,RMK 68.7/40.0,,0.00,WUHU21623XXSP,2013-04-02 00:49:00,
2013-04-01 20:54:00,28.6,13.6,30.07,NNW,337,5.8,11.0,53,0.00,RMK 68.5/40.0,,0.00,WUHU21623XXSP,2013-04-02 00:54:00,
2013-04-01 20:59:00,28.6,13.6,30.08,NNW,337,0.0,5.8,53,0.00,RMK 68.5/40.0,,0.00,WUHU21623XXSP,2013-04-02 00:59:00,
2013-04-01 21:04:00,28.8,14.2,30.08,NNW,337,0.0,0.0,54,0.00,RMK 68.5/40.0,,0.00,WUHU21623XXSP,2013-04-02 01:04:00,
2013-04-01 21:09:00,29.0,14.4,30.08,WNW,292,0.0,0.0,54,0.00,RMK 68.4/40.0,,0.00,WUHU21623XXSP,2013-04-02 01:09:00,
2013-04-01 21:14:00,29.0,14.4,30.08,North,0,0.0,3.4,54,0.00,RMK 68.4/40.0,,0.00,WUHU21623XXSP,2013-04-02 01:14:00,
2013-04-01 21:19:00,29.0,14.4,30.08,NW,315,4.5,4.5,54,0.00,RMK 68.2/40.0,,0.00,WUHU21623XXSP,2013-04-02 01:19:00,
2013-04-01 21:24:00,28.6,14.5,30.08,NNW,337,4.0,10.1,55,0.00,RMK 68.2/40.0,,0.00,WUHU21623XXSP,2013-04-02 01:24:00,
2013-04-01 21:29:00,28.6,14.9,30.08,WNW,292,5.1,10.1,56,0.00,RMK 68.2/40.0,,0.00,WUHU21623XXSP,2013-04-02 01:29:00,
2013-04-01 21:34:00,28.6,15.3,30.08,NW,315,5.8,5.8,57,0.00,RMK 68.0/40.0,,0.00,WUHU21623XXSP,2013-04-02 01:34:00,
2013-04-01 21:39:00,28.4,15.5,30.09,NW,315,0.0,5.8,58,0.00,RMK 68.0/40.0,,0.00,WUHU21623XXSP,2013-04-02 01:39:00,
2013-04-01 21:44:00,28.3,15.4,30.09,West,270,0.0,2.5,58,0.00,RMK 68.0/40.0,,0.00,WUHU21623XXSP,2013-04-02 01:44:00,
2013-04-01 21:49:00,28.3,15.4,30.08,NNW,337,0.0,2.5,58,0.00,RMK 68.0/40.0,,0.00,WUHU21623XXSP,2013-04-02 01:49:00,
2013-04-01 21:54:00,28.3,15.4,30.08,NNW,337,0.0,0.0,58,0.00,RMK 67.8/39.0,,0.00,WUHU21623XXSP,2013-04-02 01:54:00,
2013-04-01 21:59:00,28.3,15.0,30.09,West,270,0.0,0.0,57,0.00,RMK 67.8/39.0,,0.00,WUHU21623XXSP,2013-04-02 01:59:00,
2013-04-01 22:04:00,28.1,14.8,30.09,NNW,337,0.0,0.0,57,0.00,RMK 67.8/39.0,,0.00,WUHU21623XXSP,2013-04-02 02:04:00,
2013-04-01 22:09:00,28.1,14.8,30.09,NW,315,0.0,0.0,57,0.00,RMK 67.8/39.0,,0.00,WUHU21623XXSP,2013-04-02 02:09:00,
2013-04-01 22:14:00,27.7,14.5,30.09,WNW,292,0.0,1.3,57,0.00,RMK 67.6/39.0,,0.00,WUHU21623XXSP,2013-04-02 02:14:00,
2013-04-01 22:19:00,27.7,14.5,30.09,North,0,0.0,4.3,57,0.00,RMK 67.6/39.0,,0.00,WUHU21623XXSP,2013-04-02 02:19:00,
2013-04-01 22:24:00,27.7,14.9,30.09,NW,315,0.0,4.3,58,0.00,RMK 67.6/39.0,,0.00,WUHU21623XXSP,2013-04-02 02:24:00,
2013-04-01 22:29:00,27.5,14.7,30.10,WSW,247,0.0,0.0,58,0.00,RMK 67.6/39.0,,0.00,WUHU21623XXSP,2013-04-02 02:29:00,
2013-04-01 22:34:00,27.5,14.7,30.09,NNW,337,0.0,0.0,58,0.00,RMK 67.6/39.0,,0.00,WUHU21623XXSP,2013-04-02 02:34:00,
2013-04-01 22:40:00,27.4,14.6,30.09,NNW,337,0.0,0.0,58,0.00,RMK 67.5/39.0,,0.00,WUHU21623XXSP,2013-04-02 02:40:00,
2013-04-01 22:45:00,27.2,14.4,30.10,NNE,22,0.0,0.0,58,0.00,RMK 67.5/39.0,,0.00,WUHU21623XXSP,2013-04-02 02:45:00,
2013-04-01 22:50:00,27.2,14.4,30.10,NNW,337,0.0,0.0,58,0.00,RMK 67.3/39.0,,0.00,WUHU21623XXSP,2013-04-02 02:50:00,
2013-04-01 22:55:00,27.2,14.4,30.09,NNW,337,0.0,0.0,58,0.00,RMK 67.3/38.0,,0.00,WUHU21623XXSP,2013-04-02 02:55:00,
2013-04-01 23:00:00,27.2,14.4,30.10,NW,315,0.0,0.0,58,0.00,RMK 67.3/38.0,,0.00,WUHU21623XXSP,2013-04-02 03:00:00,
2013-04-01 23:05:00,27.0,14.2,30.10,North,0,0.0,0.0,58,0.00,RMK 67.3/38.0,,0.00,WUHU21623XXSP,2013-04-02 03:05:00,
2013-04-01 23:10:00,26.8,14.4,30.10,North,0,0.0,0.0,59,0.00,RMK 67.1/38.0,,0.00,WUHU21623XXSP,2013-04-02 03:10:00,
2013-04-01 23:15:00,26.8,14.4,30.10,North,0,0.0,0.0,59,0.00,RMK 67.1/38.0,,0.00,WUHU21623XXSP,2013-04-02 03:15:00,
2013-04-01 23:20:00,26.8,14.4,30.10,NW,315,0.0,0.0,59,0.00,RMK 67.1/38.0,,0.00,WUHU21623XXSP,2013-04-02 03:20:00,
2013-04-01 23:25:00,26.8,14.4,30.10,North,0,0.0,0.0,59,0.00,RMK 66.9/38.0,,0.00,WUHU21623XXSP,2013-04-02 03:25:00,
2013-04-01 23:30:00,26.8,14.4,30.10,North,0,0.0,0.0,59,0.00,RMK 66.9/38.0,,0.00,WUHU21623XXSP,2013-04-02 03:30:00,
2013-04-01 23:35:00,26.6,14.6,30.09,NNE,22,0.0,0.0,60,0.00,RMK 66.9/38.0,,0.00,WUHU21623XXSP,2013-04-02 03:35:00,
2013-04-01 23:40:00,26.6,14.6,30.09,NNE,22,0.0,0.0,60,0.00,RMK 66.7/38.0,,0.00,WUHU21623XXSP,2013-04-02 03:40:00,
2013-04-01 23:45:00,26.6,14.6,30.09,North,0,0.0,0.0,60,0.00,RMK 66.7/38.0,,0.00,WUHU21623XXSP,2013-04-02 03:45:00,
2013-04-01 23:50:00,26.6,14.6,30.09,North,0,0.0,0.0,60,0.00,RMK 66.7/37.0,,0.00,WUHU21623XXSP,2013-04-02 03:50:00,
2013-04-01 23:55:00,26.5,14.9,30.10,WNW,292,0.0,0.0,61,0.00,RMK 66.7/37.0,,0.00,WUHU21623XXSP,2013-04-02 03:55:00,